Location: Home
(42.5358°N, 72.7383°W)
Time: 06:04:15
(UTC-05:00)

Explorer 11/Cluster Stage 4 - Pass Details

Date: 01 December 2021
Orbit: 467 x 1255 km, 28.8° (Epoch: 25 January)

Event Time Altitude Azimuth Distance (km) Brightness Sun altitude
Rises 04:00:07 0° 239° (WSW) 3,855 - -32.7°
Reaches altitude 10° 04:03:10 10° 228° (SW) 3,003 - -32.2°
Exits shadow 04:07:50 26° 192° (SSW) 2,142 8.6 -31.3°
Maximum altitude 04:09:26 28° 172° (S) 2,087 8.7 -31.0°
Drops below altitude 10° 04:16:08 10° 118° (ESE) 3,224 10.5 -29.8°
Sets 04:19:31 0° 108° (ESE) 4,185 11.4 -29.2°
